Preview of NWS' New Version of Forecast
This preview is not operational and should not be used for support decisions.

Regional Weather Roundup (RWR)

Issued by National Weather Service (NWS)

                            
000
ASUS46 KSEW 181410
RWRWA 

WASHINGTON REGIONAL WEATHER ROUNDUP
NATIONAL WEATHER SERVICE SEATTLE WA
700 AM PDT SAT MAY 18 2019

NOTE:"FAIR" INDICATES FEW OR NO CLOUDS BELOW 12,000 FEET WITH NO 
SIGNIFICANT WEATHER AND/OR OBSTRUCTIONS TO VISIBILITY.

WAZ507-509-555>559-181500-
SEATTLE, TACOMA, EVERETT, AND VICINITY
  
CITY           SKY/WX    TMP DP  RH WIND       PRES   REMARKS
EVERETT        PTSUNNY   52  46  80 VRB3      29.89S                  
BOEING FIELD   CLOUDY    54  46  74 CALM      29.88S                  
RENTON         CLOUDY    53  48  83 CALM      29.88S                  
SEATAC AIRPORT PTSUNNY   53  46  77 CALM      29.88S                  
JBLM-MCCHORD   CLOUDY    52  51  99 CALM      29.88S                  
PUYALLUP       PTSUNNY   50  48  93 CALM      29.88S                  
BREMERTON      CLOUDY    50  47  89 CALM      29.89S                  
JBLM-FT LEWIS  CLOUDY    52  51  99 CALM      29.87F                  
TACOMA NARROWS PTSUNNY   52  46  80 CALM      29.88F                  
$$
 
WAZ001-503-506-510-514-515-181500-
NORTH INTERIOR
  
CITY           SKY/WX    TMP DP  RH WIND       PRES   REMARKS
BELLINGHAM     CLOUDY    52  45  77 N5        29.88S                  
FRIDAY HARBOR  CLOUDY    53  46  77 SE7       29.89R                  
EASTSOUND      PTSUNNY   55  46  71 VRB6G12   29.87S                  
PORT ANGELES   PTSUNNY   45  43  93 CALM      29.87S                  
EDIZ HOOK      FAIR      48  45  88 CALM      29.86F                  
PORT TOWNSEND  FAIR      45  45 100 CALM      29.87S                  
NAS WHIDBEY    PTSUNNY   57  46  66 SE5       29.91S                  
ARLINGTON      CLOUDY    52  47  83 CALM      29.90S                  
BURLINGTON     CLOUDY    52  48  87 NE6       29.89R                  
$$
 
WAZ020-022-039-040-504-511-512-181500-
SOUTHWEST INTERIOR
  
CITY           SKY/WX    TMP DP  RH WIND       PRES   REMARKS
SHELTON        CLOUDY    51  46  83 N3        29.86F                  
OLYMPIA        CLOUDY    51  48  89 N3        29.87F                  
CHEHALIS       CLOUDY    52  52 100 CALM      29.87F                  
KELSO          CLOUDY    52  49  89 CALM      29.87F                  
VANCOUVER      CLOUDY    52  48  86 CALM      29.86F                  
SCAPPOOSE, OR  CLOUDY    53  50  89 W3        29.86F                  
PORTLAND, OR   PTSUNNY   53  48  83 NW3       29.86F                  
$$
 
WAZ021-516-517-181500-
WASHINGTON COAST
  
CITY           SKY/WX    TMP DP  RH WIND       PRES   REMARKS
FORKS          CLOUDY    48  47  96 E5        29.83F                  
HOQUIAM        CLOUDY    51  50  96 E9        29.84F                  
ASTORIA, OR    CLOUDY    52  48  86 E6        29.81F                  
$$
 
WAZ019-023-024-040-567>569-181500-
CASCADE MOUNTAINS AND COLUMBIA GORGE
  
CITY           SKY/WX    TMP DP  RH WIND       PRES   REMARKS
STAMPEDE PASS  FOG       39  37  92 CALM      29.88R VSB 1/2          
TROUTDALE, OR  CLOUDY    53  47  79 E15       29.85F                  
HOOD RIVER, OR PTSUNNY   45  41  87 CALM      29.91S                  
THE DALLES, OR PTSUNNY   45  41  86 CALM      29.92R                  
$$

WAZ026-027-041>044-520-521-181500-
EAST SLOPES
  
CITY           SKY/WX    TMP DP  RH WIND       PRES   REMARKS
OMAK           MOSUNNY   49  40  71 NW3       29.85S                  
WENATCHEE      PTSUNNY   50  36  58 NW9       29.86R                  
ELLENSBURG     MOSUNNY   43  37  79 CALM      29.88R                  
YAKIMA         PTSUNNY   44  38  79 SW3       29.89R                  
SUNNYSIDE ARPT MOSUNNY   44  42  92 CALM      29.90R                  
YAKIMA TC      FAIR      42  38  86 CALM      29.87R                  
$$

WAZ028-034-035-181500-
COLUMBIA BASIN
  
CITY           SKY/WX    TMP DP  RH WIND       PRES   REMARKS
EPHRATA        MOSUNNY   53  36  52 W5        29.85R                  
MOSES LAKE     MOSUNNY   48  32  53 S6        29.86S                  
PASCO          MOSUNNY   55  42  61 S8        29.90S                  
RICHLAND ARPT  MOSUNNY   54  44  67 SW9       29.90R                  
HERMISTON, OR  MOSUNNY   49  41  74 CALM      29.91R                  
$$

WAZ036>038-181500-
NORTHEAST WASHINGTON
  
CITY           SKY/WX    TMP DP  RH WIND       PRES   REMARKS
SPOKANE GEIGER CLOUDY    44  40  85 S7        29.88R                  
SPOKANE FELTS  CLOUDY    47  43  86 SE5       29.89R                  
FAIRCHILD AFB  CLOUDY    43  43 100 S9        29.87R                  
COEURDALENE,ID LGT RAIN  44  42  93 S7        29.90S                  
DEER PARK      LGT RAIN  45  42  89 SE7       29.89R FOG              
$$

WAZ029>033-181500-
SOUTHEAST WASHINGTON
  
CITY           SKY/WX    TMP DP  RH WIND       PRES   REMARKS
PULLMAN        PTSUNNY   47  40  76 CALM      29.91S                  
LEWISTON, ID   CLOUDY    54  41  61 S8        29.89S                  
WALLA WALLA    SUNNY     51  40  65 SE3       29.90F                  
PENDLETON, OR  MOSUNNY   48  39  71 S9        29.90R                  
$$